Home   Weather   Niterói   Past weeks

Flag for Brazil Past Weather in Niterói, Rio de Janeiro, Brazil — Yesterday and Last 2 Weeks

Now
64 °F

Clear.


Feels Like: 64 °F
Forecast: 64 / 77 °F
Wind: 3 mph from North

Location: Rio De Janeiro Airport

Current Time: Jun 26, 2017 at 5:44:12 am

Latest Report: Jun 26, 2017 at 5:00 am


Visibility: 10 mi

Pressure: 30.24 "Hg

Humidity: 88%

Dew Point: 61 °F

Location of NiteróiLocation

Past Weather in Niterói — Graph

°F

Niterói Temperature Yesterday

Maximum temperature yesterday: 77 °F (at 1:00 pm)
Minimum temperature yesterday: 66 °F (at 5:00 am)
Average temperature yesterday: 71 °F

High & Low Weather Summary for the Past Weeks

 TemperatureHumidityPressure
High84 °F (Jun 18, 2:00 pm)100% (Jun 12, 6:40 am)30.33 "Hg (Jun 12, 6:40 am)
Low59 °F (Jun 11, 5:00 am)42% (Jun 19, 6:00 pm)29.92 "Hg (Jun 15, 11:00 am)
Average72 °F84%30.14 "Hg
* Reported Jun 11 4:00 am — Jun 26 4:00 am, Niterói. Weather by CustomWeather, © 2017

Note: Actual official high and low records may vary slightly from our data, if they occured in-between our weather recording intervals... More about our weather records

Advertising

Niterói Weather History for the Previous 24 Hours

Scroll right to see more
 ConditionsComfort  
Time TempWeatherWind HumidityBarometerVisibility
4:00 am
Mon, Jun 26
64 °FClear.3 mph88%30.24 "Hg10 mi
3:00 am66 °FClear.2 mph78%30.24 "Hg10 mi
2:00 am66 °FClear.3 mph83%30.24 "Hg10 mi
1:00 am68 °FClear.5 mph78%30.24 "Hg10 mi
12:00 am68 °FClear.3 mph83%30.27 "Hg10 mi
11:00 pm
Sun, Jun 25
66 °FClear.3 mph83%30.27 "Hg10 mi
10:00 pm66 °FClear.6 mph83%30.27 "Hg10 mi
9:00 pm68 °FClear.5 mph78%30.27 "Hg10 mi
8:00 pm68 °FClear.5 mph78%30.27 "Hg10 mi
7:00 pm68 °FClear.8 mph78%30.24 "Hg10 mi
6:00 pm70 °FPassing clouds.7 mph73%30.24 "HgN/A
5:00 pm72 °FPassing clouds.9 mph73%30.21 "HgN/A
4:00 pm73 °FPassing clouds.12 mph69%30.21 "HgN/A
3:00 pm75 °FPassing clouds.12 mph69%30.24 "HgN/A
2:00 pm77 °FPassing clouds.10 mph65%30.24 "HgN/A
1:00 pm77 °FPassing clouds.8 mph69%30.24 "HgN/A
12:00 pm75 °FPassing clouds.2 mph74%30.27 "HgN/A
11:00 am75 °FPassing clouds.5 mph74%30.30 "Hg4 mi
10:00 am73 °FPassing clouds.5 mph78%30.33 "Hg4 mi
9:00 am73 °FPassing clouds.5 mph78%30.30 "HgN/A
8:00 am70 °FPassing clouds.2 mph83%30.30 "HgN/A
7:00 am66 °FScattered clouds.5 mph94%30.27 "HgN/A
6:00 am68 °FClear.5 mph88%30.27 "Hg10 mi
5:00 am66 °FClear.No wind94%30.24 "Hg10 mi
Weather by CustomWeather, © 2017

See weather overviewHow to use our weather pages